Preview of NWS' New Version of Forecast
This preview is not operational and should not be used for support decisions.

Regional Weather Roundup (RWR)

Issued by National Weather Service (NWS)

                            
000
ASUS42 KTBW 181015
RWRFL 
FLORIDA REGIONAL WEATHER ROUNDUP
NATIONAL WEATHER SERVICE TAMPA BAY RUSKIN FL
600 AM EDT TUE JUN 18 2019

NOTE: "FAIR" INDICATES FEW OR NO CLOUDS BELOW 12,000 FEET WITH NO
SIGNIFICANT WEATHER AND/OR OBSTRUCTIONS TO VISIBILITY.

FLZ001>010-012>015-112-114-115-181100-
PANHANDLE FLORIDA
  
CITY           SKY/WX    TMP DP  RH WIND       PRES   REMARKS
PENSACOLA      FAIR      79  76  90 W5        29.95R                  
PENSACOLA NAS  FAIR      75  75 100 CALM      29.94R                  
MILTON NAS     FAIR      73  73 100 CALM      29.96R                  
CRESTVIEW      FAIR      74  72  93 CALM      29.97F                  
DUKE FIELD     FAIR      75  75 100 SE7       29.96F                  
VALPARAISO     PTCLDY    78  73  82 E6        29.95S                  
MARY ESTHER    MOCLDY    78  75  91 CALM      29.94S                  
TRI COUNTY     MOCLDY    74  72  93 CALM      29.99R                  
PANAMA CITY    FAIR      75  73  93 CALM      29.97R                  
TYNDALL AFB    FAIR      77  75  93 E3        29.97S                  
APALACHICOLA   FAIR      76  72  87 CALM      29.98R                  

STATION/POSITION SKY/WX   TEMP    WIND        PRES    WAVE   SWELL
                          AIR SEA DIR/SP/G            HT/PER HT/PER
                          (F)     (DEG/KT/KT) (MB)    (FT/S) (FT/S)
30.1N   87.6W                                   N/A     2/ 4
29.2N   88.2W                     180/ 12/ 14 1014.7R   2/ 5   2/ 6
PANAMA CITY BEAC NOT AVBL
TOWER C          NOT AVBL

$$
FLZ011-016>038-118-127-128-134-139-239-181100-
NORTH FLORIDA
  
CITY           SKY/WX    TMP DP  RH WIND       PRES   REMARKS
MARIANNA       FAIR      74  74 100 CALM      29.98S                  
TALLAHASSEE    MOCLDY    74  74 100 E3        29.99S                  
PERRY          CLOUDY    73  73  97 CALM      30.01R                  
LIVE OAK       MOCLDY    72  72 100 CALM      30.00S                  
CROSS CITY     CLOUDY    73  73  99 E3        30.00R FOG              
LAKE CITY      CLOUDY    70  70 100 CALM      30.02R FOG              
GAINESVILLE    CLOUDY    77  73  87 S3        30.03S FOG              
PALATKA        CLOUDY    73  73 100 CALM      30.02S                  
MAYPORT NAS    FAIR      74  73  97 S7        30.00S                  
JACKSONVILLE   FAIR      72  71  97 CALM      30.00S                  
JAX NAS        FAIR      76  70  82 S6        30.02R                  
JAX CECIL      CLOUDY    73  72  94 CALM      30.01S                  
FERNANDINA BEA FAIR      75  74  95 SW8       30.00S                  
ST AUGUSTINE   CLOUDY    74  72  93 SW3       30.02F                  
PALM COAST     MOCLDY    73  72  94 S3        30.02S                  

STATION/POSITION SKY/WX   TEMP    WIND        PRES    WAVE   SWELL
                          AIR SEA DIR/SP/G            HT/PER HT/PER
                          (F)     (DEG/KT/KT) (MB)    (FT/S) (FT/S)
SHELL POINT      NOT AVBL
KEATON BEACH               73      60/  5/  6 1015.7R
CEDAR KEY                                       N/A
FERNANDINA       NOT AVBL
30.7N   81.3W                 82                N/A     3/ 5
MAYPORT          NOT AVBL
31.4N   80.9W              80 83  160/ 12/ 14 1016.0F   3/ 5   2/ 6
ST AUGUSTINE               75 80  200/  6/  7 1016.5S

$$
FLZ040-043>046-052-053-057-058-063-144-181100-
INTERIOR CENTRAL FLORIDA
  
CITY           SKY/WX    TMP DP  RH WIND       PRES   REMARKS
OCALA          CLOUDY    75  74  96 S6        30.01S                  
LEESBURG       CLOUDY    75  72  90 S10       30.03R                  
SANFORD        CLOUDY    77  73  87 S12       30.02S                  
ORLANDO EXEC   CLOUDY    77  73  87 S10       30.02S                  
ORLANDO INTL   MOCLDY    75  73  93 S10       30.02S                  
KISSIMMEE      CLOUDY    75  73  93 S5        30.04R                  
WINTER HAVEN   FAIR      76  72  87 S9        30.03S                  
LAKELAND       CLEAR     73  72  94 S6        30.01                   
BARTOW         FAIR      73  73 100 SE5       30.01S                  
SEBRING        CLOUDY    75  74  95 S9        30.03R                  
OKEECHOBEE     FAIR      75  72  88 S6        30.02S                  

$$
FLZ041-047-054-059-064-141-147-181100-
EAST CENTRAL FLORIDA
  
CITY           SKY/WX    TMP DP  RH WIND       PRES   REMARKS
DAYTONA BEACH  CLOUDY    75  75 100 S5        30.03R                  
DELAND         CLOUDY    75  72  88 S8        30.02R                  
JFK SPACE CTR  MOCLDY    76  65  68 SW7       30.02S                  
CAPE CANAVERAL FAIR      76  15  10 S8        30.02R                  
PATRICK AFB    FAIR      76  76 100 S12       30.02S                  
MELBOURNE      FAIR      76  73  91 S6        30.02S                  
VERO BEACH     FAIR      76  73  91 CALM      30.03S                  
FT PIERCE      FAIR      75  72  90 S3        30.03R                  
STUART         FAIR      77  70  78 S6        30.05R                  

STATION/POSITION SKY/WX   TEMP    WIND        PRES    WAVE   SWELL
                          AIR SEA DIR/SP/G            HT/PER HT/PER
                          (F)     (DEG/KT/KT) (MB)    (FT/S) (FT/S)
28.5N   80.2W              78 80  200/ 12/ 14 1016.8F   3/ 5   2/ 6
28.9N   78.5W              81 82  160/ 16/ 17   N/A     4/ 5   2/ 8
TRIDENT PIER     NOT AVBL
28.4N   80.5W                 78                N/A     3/ 5
27.5N   80.2W                 78                N/A     3/ 4

$$
FLZ050-056-061-142-242-148-248-149-249-151-251-155-255-
160-260-181100-
WEST CENTRAL FLORIDA
  
CITY           SKY/WX    TMP DP  RH WIND       PRES   REMARKS
CRYSTAL RIVER  FAIR      73  72  94 SE3       30.00S THUNDER          
INVERNESS      CLOUDY    73  73 100 S5        30.01S                  
BROOKSVILLE    FAIR      74  73  97 S7        30.01S                  
CLEARWATER AIR FAIR      73  73 100 S3        30.01R                  
ST PETE CLEARW LGT RAIN  76  74  93 S8        30.01R                  
TAMPA INTL     FAIR      77  74  90 S7        30.01S                  
TAMPA EXEC     CLOUDY    73  73 100 S6        30.02S                  
PLANT CITY     FAIR     N/A N/A N/A S7        30.03F                  
MACDILL AFB    CLOUDY    77  74  90 S8        30.00S                  
PETER O KNIGHT CLOUDY   N/A N/A N/A S9        30.01S                  
ST PETERSBURG    N/A      0  32 100 MISG        N/A                   
SARASOTA       FAIR      75  74  96 SE6       29.99S                  
VENICE         FAIR      77  75  94 CALM      30.01S                  

STATION/POSITION SKY/WX   TEMP    WIND        PRES    WAVE   SWELL
                          AIR SEA DIR/SP/G            HT/PER HT/PER
                          (F)     (DEG/KT/KT) (MB)    (FT/S) (FT/S)
27.3N   84.2W                 82                N/A     2/ 5
CLEARWATER BEACH NOT AVBL
MIDDLE TAMPA BAY NOT AVBL
VENICE                     80 84  160/ 11/ 12 1015.9F

$$
FLZ066-069-070-075>078-162-262-165-265-181100-
SOUTHWEST FLORIDA AND KEYS
  
CITY           SKY/WX    TMP DP  RH WIND       PRES   REMARKS
PUNTA GORDA    FAIR      74  73  97 SE3       30.03R                  
FT MYERS       FAIR      66  32  28 CALM      30.01S                  
SOUTHWEST INTL FAIR      78  72  81 S8        30.02S                  
NAPLES         FAIR      73  73 100 CALM      30.02R                  
IMMOKALEE      MOCLDY    75  73  94 CALM      30.01R                  
MARATHON       FAIR      82  75  79 S7        30.01S                  
KEY WEST NAS   FAIR      83  74  74 SE15      30.01R                  
KEY WEST INTL  FAIR      81  75  82 SE13      30.02R                  

STATION/POSITION SKY/WX   TEMP    WIND        PRES    WAVE   SWELL
                          AIR SEA DIR/SP/G            HT/PER HT/PER
                          (F)     (DEG/KT/KT) (MB)    (FT/S) (FT/S)
NAPLES           NOT AVBL
DRY TORTUGAS               83     180/ 15/ 16 1016.2R
SAND KEY                   81                 1016.1R
SOMBRERO KEY               81                 1015.6F

$$
FLZ067-068-071>074-168-172>174-181100-
SOUTHEAST FLORIDA 
  
CITY           SKY/WX    TMP DP  RH WIND       PRES   REMARKS
W PALM BEACH   MOCLDY    75  70  84 S5        30.04R                  
FT LAUDER-EXEC MOCLDY    74  72  93 W3        30.03R                  
FT LAUDERDALE  MOCLDY    76  73  91 W3        30.03R                  
POMPANO BEACH  FAIR      75  72  90 SW5       30.03R                  
PEMBROKE PINES FAIR      74  72  93 CALM      30.05R                  
OPA LOCKA      FAIR      75  73  93 W3        30.04R                  
MIAMI          MOCLDY    76  71  85 CALM      30.03R                  
WEST KENDALL   FAIR      73  71  93 CALM      30.03R                  
HOMESTEAD      MOCLDY    74  72  94 W3        30.03R                  

STATION/POSITION SKY/WX   TEMP    WIND        PRES    WAVE   SWELL
                          AIR SEA DIR/SP/G            HT/PER HT/PER
                          (F)     (DEG/KT/KT) (MB)    (FT/S) (FT/S)
PORT EVERGLADES            79     160/  9/ 12 1016.5
SETTLEMENT POINT           77     240/ 10/ 11 1017.8R

$$